TimeEST,TemperatureF,Dew PointF,Humidity,Sea Level PressureIn,VisibilityMPH,Wind Direction,Wind SpeedMPH,Gust SpeedMPH,PrecipitationIn,Events,Conditions,WindDirDegrees,DateUTC
12:15 AM,42.8,29.3,59,29.90,10.0,NW,8.1,-,N/A,,Clear,310,2014-01-12 05:15:00
12:35 AM,42.4,28.4,58,29.91,10.0,NW,8.1,-,N/A,,Clear,310,2014-01-12 05:35:00
12:55 AM,42.4,28.8,58,29.92,10.0,WNW,10.4,19.6,N/A,,Clear,300,2014-01-12 05:55:00
1:15 AM,41.9,28.8,60,29.92,10.0,WNW,8.1,17.3,0.01,,Clear,300,2014-01-12 06:15:00
1:35 AM,41.9,28.4,59,29.92,10.0,WNW,8.1,21.9,0.01,,Clear,300,2014-01-12 06:35:00
1:55 AM,41.2,28.2,60,29.94,10.0,WNW,8.1,-,0.01,,Clear,290,2014-01-12 06:55:00
2:15 AM,41.2,27.7,59,29.94,10.0,NW,5.8,-,N/A,,Clear,320,2014-01-12 07:15:00
2:35 AM,40.6,28.0,61,29.96,10.0,NNW,6.9,-,N/A,,Clear,330,2014-01-12 07:35:00
2:55 AM,40.3,27.7,61,29.96,10.0,NW,5.8,-,N/A,,Scattered Clouds,320,2014-01-12 07:55:00
3:15 AM,39.4,28.0,64,29.97,10.0,NW,4.6,-,0.01,,Clear,310,2014-01-12 08:15:00
3:35 AM,34.7,28.6,78,29.97,10.0,Calm,Calm,-,0.01,,Clear,0,2014-01-12 08:35:00
3:55 AM,32.9,28.9,85,29.97,10.0,NW,4.6,-,0.01,,Clear,310,2014-01-12 08:55:00
4:15 AM,34.7,28.2,77,29.98,10.0,WNW,3.5,-,N/A,,Clear,290,2014-01-12 09:15:00
4:35 AM,38.5,28.2,67,29.98,10.0,Calm,Calm,-,N/A,,Clear,0,2014-01-12 09:35:00
4:55 AM,37.0,28.0,70,29.98,10.0,Calm,Calm,-,N/A,,Clear,0,2014-01-12 09:55:00
5:15 AM,34.9,28.0,76,29.99,10.0,West,3.5,-,N/A,,Clear,260,2014-01-12 10:15:00
5:35 AM,32.0,27.9,85,29.99,10.0,Calm,Calm,-,N/A,,Scattered Clouds,0,2014-01-12 10:35:00
5:55 AM,31.6,28.0,87,29.99,10.0,Calm,Calm,-,N/A,,Scattered Clouds,0,2014-01-12 10:55:00
6:15 AM,30.7,27.5,88,29.98,10.0,Calm,Calm,-,N/A,,Clear,0,2014-01-12 11:15:00
6:35 AM,29.8,27.3,90,29.99,10.0,Calm,Calm,-,N/A,,Scattered Clouds,0,2014-01-12 11:35:00
6:55 AM,32.0,29.1,89,30.00,10.0,Calm,Calm,-,N/A,,Clear,0,2014-01-12 11:55:00
7:15 AM,36.5,29.1,75,30.00,10.0,North,8.1,-,N/A,,Clear,350,2014-01-12 12:15:00
7:35 AM,37.4,28.9,71,30.03,10.0,NNE,6.9,-,N/A,,Clear,20,2014-01-12 12:35:00
7:55 AM,32.9,28.4,84,30.04,10.0,ENE,4.6,-,N/A,,Clear,70,2014-01-12 12:55:00
8:15 AM,31.3,27.7,87,30.06,10.0,Calm,Calm,-,N/A,,Clear,0,2014-01-12 13:15:00
8:35 AM,31.1,28.8,91,30.08,10.0,WSW,3.5,-,N/A,,Clear,240,2014-01-12 13:35:00
8:55 AM,32.4,29.8,90,30.09,10.0,Calm,Calm,-,N/A,,Clear,0,2014-01-12 13:55:00
9:15 AM,34.7,30.4,84,30.10,10.0,Calm,Calm,-,N/A,,Clear,0,2014-01-12 14:15:00
9:35 AM,37.4,31.6,80,30.10,10.0,Calm,Calm,-,N/A,,Clear,0,2014-01-12 14:35:00
9:55 AM,41.0,31.8,70,30.11,10.0,Calm,Calm,-,N/A,,Clear,0,2014-01-12 14:55:00
10:15 AM,44.2,31.1,60,30.12,10.0,Calm,Calm,-,N/A,,Clear,0,2014-01-12 15:15:00
10:35 AM,45.9,30.0,54,30.13,10.0,Calm,Calm,-,N/A,,Clear,0,2014-01-12 15:35:00
10:55 AM,46.8,28.8,50,30.13,10.0,NNW,5.8,-,N/A,,Clear,340,2014-01-12 15:55:00
11:15 AM,48.2,27.1,44,30.13,10.0,North,5.8,-,N/A,,Clear,350,2014-01-12 16:15:00
11:35 AM,49.1,25.5,40,30.13,10.0,NNW,6.9,-,N/A,,Clear,340,2014-01-12 16:35:00
11:55 AM,49.3,22.6,35,30.12,10.0,NNW,5.8,-,N/A,,Clear,340,2014-01-12 16:55:00
12:15 PM,50.2,22.3,34,30.11,10.0,North,9.2,-,N/A,,Clear,350,2014-01-12 17:15:00
12:35 PM,50.7,21.6,32,30.11,10.0,NNW,9.2,-,N/A,,Clear,330,2014-01-12 17:35:00
12:55 PM,51.1,19.0,28,30.09,10.0,NNW,5.8,-,N/A,,Clear,330,2014-01-12 17:55:00
1:15 PM,51.8,19.6,28,30.09,10.0,NNW,4.6,-,N/A,,Clear,330,2014-01-12 18:15:00
1:35 PM,52.5,20.3,28,30.09,10.0,Calm,Calm,-,N/A,,Clear,0,2014-01-12 18:35:00
1:55 PM,53.2,19.4,27,30.09,10.0,Calm,Calm,-,N/A,,Clear,0,2014-01-12 18:55:00
2:15 PM,54.1,19.8,26,30.09,10.0,East,3.5,-,N/A,,Clear,80,2014-01-12 19:15:00
2:35 PM,55.0,20.7,26,30.09,10.0,Calm,Calm,-,N/A,,Clear,0,2014-01-12 19:35:00
2:55 PM,55.2,22.1,28,30.09,10.0,SSE,5.8,-,N/A,,Clear,150,2014-01-12 19:55:00
3:15 PM,54.9,21.7,28,30.09,10.0,SSE,3.5,-,N/A,,Clear,150,2014-01-12 20:15:00
3:35 PM,55.2,20.8,26,30.09,10.0,Calm,Calm,-,N/A,,Clear,0,2014-01-12 20:35:00
3:55 PM,55.4,20.1,25,30.09,10.0,Calm,Calm,-,N/A,,Clear,0,2014-01-12 20:55:00
4:15 PM,55.0,21.2,27,30.09,10.0,Calm,Calm,-,N/A,,Clear,0,2014-01-12 21:15:00
4:35 PM,54.1,22.8,30,30.09,10.0,Calm,Calm,-,N/A,,Clear,0,2014-01-12 21:35:00
4:55 PM,50.9,27.3,40,30.10,10.0,Calm,Calm,-,N/A,,Clear,0,2014-01-12 21:55:00
5:15 PM,45.3,33.6,64,30.11,10.0,Calm,Calm,-,N/A,,Clear,0,2014-01-12 22:15:00
5:35 PM,41.2,32.4,71,30.12,10.0,WSW,4.6,-,N/A,,Clear,250,2014-01-12 22:35:00
5:55 PM,39.6,32.2,75,30.13,10.0,Calm,Calm,-,N/A,,Clear,0,2014-01-12 22:55:00
6:15 PM,36.9,32.0,83,30.13,10.0,WSW,3.5,-,N/A,,Clear,250,2014-01-12 23:15:00
6:35 PM,36.1,32.0,85,30.14,10.0,Calm,Calm,-,N/A,,Clear,0,2014-01-12 23:35:00
6:55 PM,35.1,31.8,88,30.14,10.0,Calm,Calm,-,N/A,,Clear,0,2014-01-12 23:55:00
7:15 PM,32.7,29.5,88,30.15,10.0,Calm,Calm,-,N/A,,Clear,0,2014-01-13 00:15:00
7:35 PM,32.0,28.8,88,30.16,10.0,Calm,Calm,-,N/A,,Clear,0,2014-01-13 00:35:00
7:55 PM,32.2,30.4,93,30.17,10.0,Calm,Calm,-,N/A,,Clear,0,2014-01-13 00:55:00
8:15 PM,30.9,27.7,88,30.17,10.0,Calm,Calm,-,N/A,,Clear,0,2014-01-13 01:15:00
8:35 PM,30.9,28.4,90,30.17,10.0,Calm,Calm,-,N/A,,Clear,0,2014-01-13 01:35:00
8:55 PM,30.9,28.4,90,30.18,10.0,Calm,Calm,-,N/A,,Clear,0,2014-01-13 01:55:00
9:15 PM,29.5,27.3,92,30.18,10.0,Calm,Calm,-,N/A,,Clear,0,2014-01-13 02:15:00
9:35 PM,29.8,28.0,93,30.18,10.0,Calm,Calm,-,N/A,,Clear,0,2014-01-13 02:35:00
9:55 PM,28.6,26.4,92,30.18,10.0,Calm,Calm,-,N/A,,Clear,0,2014-01-13 02:55:00
10:15 PM,28.8,26.6,92,30.18,10.0,Calm,Calm,-,N/A,,Clear,0,2014-01-13 03:15:00
10:35 PM,28.0,26.2,93,30.18,10.0,Calm,Calm,-,N/A,,Clear,0,2014-01-13 03:35:00
10:55 PM,27.0,25.2,93,30.18,10.0,Calm,Calm,-,N/A,,Clear,0,2014-01-13 03:55:00
11:15 PM,27.1,25.2,92,30.18,10.0,Calm,Calm,-,N/A,,Clear,0,2014-01-13 04:15:00
11:35 PM,26.2,24.3,92,30.18,10.0,Calm,Calm,-,N/A,,Clear,0,2014-01-13 04:35:00
11:55 PM,26.4,24.4,92,30.18,10.0,Calm,Calm,-,N/A,,Clear,0,2014-01-13 04:55:00